| time (UTC) | temp C | wind direction | speed KPH | gust KPH | rain 1hr cm | rain 24hr cm | rain mn cm | humidity % | barometer mb |
| 20260506212217 | 7 | 113 | 4.8 | 9.7 | 0.00 | 0.00 | 0.00 | 60 | 1014.2 |
| 20260506211217 | 7 | 135 | 8.0 | 11.3 | 0.00 | 0.00 | 0.00 | 61 | 1014.3 |
| 20260506210217 | 7 | 135 | 3.2 | 4.8 | 0.00 | 0.00 | 0.00 | 61 | 1014.4 |
| 20260506205216 | 7 | 0.0 | 0.0 | 0.00 | 0.00 | 0.00 | 62 | 1014.1 | |
| 20260506204216 | 7 | 0.0 | 4.8 | 0.00 | 0.00 | 0.00 | 61 | 1014.1 | |
| 20260506203236 | 7 | 0.0 | 1.6 | 0.00 | 0.00 | 0.00 | 60 | 1013.9 | |
| 20260506202216 | 7 | 0.0 | 1.6 | 0.00 | 0.00 | 0.00 | 60 | 1013.7 | |
| 20260506201216 | 8 | 0 | 1.6 | 3.2 | 0.00 | 0.00 | 0.00 | 59 | 1013.6 |
| 20260506200216 | 8 | 0.0 | 0.0 | 0.00 | 0.00 | 0.00 | 58 | 1013.6 | |
| 20260506195216 | 8 | 0.0 | 1.6 | 0.00 | 0.00 | 0.00 | 58 | 1013.7 | |
| 20260506194216 | 8 | 0.0 | 1.6 | 0.00 | 0.00 | 0.00 | 57 | 1013.7 | |
| 20260506193256 | 8 | 45 | 1.6 | 1.6 | 0.00 | 0.00 | 0.00 | 55 | 1013.8 |
| 20260506192216 | 8 | 0.0 | 1.6 | 0.00 | 0.00 | 0.00 | 54 | 1013.7 | |
| 20260506191215 | 8 | 0.0 | 3.2 | 0.00 | 0.00 | 0.00 | 52 | 1013.5 | |
| 20260506190216 | 8 | 0.0 | 3.2 | 0.00 | 0.00 | 0.00 | 50 | 1013.4 | |
| 20260506185216 | 8 | 0.0 | 3.2 | 0.00 | 0.00 | 0.00 | 49 | 1013.3 | |
| 20260506184215 | 8 | 90 | 1.6 | 3.2 | 0.00 | 0.00 | 0.00 | 48 | 1013.3 |
| 20260506183216 | 8 | 45 | 3.2 | 8.0 | 0.00 | 0.00 | 0.00 | 48 | 1013.4 |
| 20260506182216 | 8 | 0.0 | 1.6 | 0.00 | 0.00 | 0.00 | 50 | 1013.5 | |
| 20260506181216 | 8 | 0.0 | 0.0 | 0.00 | 0.00 | 0.00 | 48 | 1013.5 | |
| 20260506180215 | 8 | 0.0 | 1.6 | 0.00 | 0.00 | 0.00 | 48 | 1013.5 | |
| 20260506175216 | 9 | 0.0 | 1.6 | 0.00 | 0.00 | 0.00 | 47 | 1013.7 | |
| 20260506174236 | 9 | 113 | 1.6 | 3.2 | 0.00 | 0.00 | 0.00 | 46 | 1013.7 |
| 20260506173215 | 9 | 113 | 1.6 | 4.8 | 0.00 | 0.00 | 0.00 | 44 | 1013.7 |
| 20260506172216 | 9 | 135 | 1.6 | 6.4 | 0.00 | 0.00 | 0.00 | 44 | 1013.7 |
| 20260506171216 | 10 | 113 | 3.2 | 6.4 | 0.00 | 0.00 | 0.00 | 46 | 1013.8 |
| 20260506170216 | 10 | 113 | 1.6 | 3.2 | 0.00 | 0.00 | 0.00 | 46 | 1013.7 |
| 20260506165215 | 10 | 90 | 4.8 | 9.7 | 0.00 | 0.00 | 0.00 | 44 | 1013.6 |
| 20260506164218 | 10 | 23 | 3.2 | 8.0 | 0.00 | 0.00 | 0.00 | 44 | 1013.4 |
| 20260506163217 | 10 | 113 | 1.6 | 4.8 | 0.00 | 0.00 | 0.00 | 45 | 1013.4 |
| 20260506162215 | 10 | 45 | 3.2 | 6.4 | 0.00 | 0.00 | 0.00 | 45 | 1013.3 |
| 20260506161218 | 10 | 113 | 6.4 | 14.5 | 0.00 | 0.00 | 0.00 | 46 | 1013.4 |
| 20260506160217 | 11 | 90 | 4.8 | 11.3 | 0.00 | 0.00 | 0.00 | 44 | 1013.4 |
| 20260506155217 | 11 | 23 | 1.6 | 3.2 | 0.00 | 0.00 | 0.00 | 45 | 1013.3 |
| 20260506154217 | 11 | 90 | 1.6 | 3.2 | 0.00 | 0.00 | 0.00 | 46 | 1013.4 |
| 20260506153237 | 11 | 90 | 1.6 | 4.8 | 0.00 | 0.00 | 0.00 | 44 | 1013.5 |
| 20260506152217 | 12 | 23 | 1.6 | 3.2 | 0.00 | 0.00 | 0.00 | 43 | 1013.7 |
| 20260506151217 | 12 | 0.0 | 1.6 | 0.00 | 0.00 | 0.00 | 42 | 1013.7 | |
| 20260506150217 | 12 | 68 | 1.6 | 1.6 | 0.00 | 0.00 | 0.00 | 43 | 1013.8 |
| 20260506145217 | 12 | 0 | 3.2 | 6.4 | 0.00 | 0.00 | 0.00 | 37 | 1014.0 |
| 20260506144237 | 12 | 315 | 1.6 | 4.8 | 0.00 | 0.00 | 0.00 | 41 | 1014.2 |
| 20260506143217 | 12 | 0.0 | 3.2 | 0.00 | 0.00 | 0.00 | 42 | 1014.2 | |
| 20260506142217 | 12 | 68 | 3.2 | 8.0 | 0.00 | 0.00 | 0.00 | 39 | 1014.3 |
| 20260506141217 | 13 | 0.0 | 1.6 | 0.00 | 0.00 | 0.00 | 38 | 1014.3 | |
| 20260506140217 | 13 | 23 | 4.8 | 6.4 | 0.00 | 0.00 | 0.00 | 38 | 1014.3 |
| 20260506135217 | 13 | 90 | 1.6 | 3.2 | 0.00 | 0.00 | 0.00 | 39 | 1014.3 |
| 20260506134217 | 12 | 113 | 3.2 | 8.0 | 0.00 | 0.00 | 0.00 | 40 | 1014.2 |
| 20260506133217 | 13 | 68 | 1.6 | 3.2 | 0.00 | 0.00 | 0.00 | 36 | 1014.2 |
| 20260506132217 | 13 | 113 | 4.8 | 6.4 | 0.00 | 0.00 | 0.00 | 37 | 1014.3 |
| 20260506131237 | 12 | 113 | 3.2 | 8.0 | 0.00 | 0.00 | 0.00 | 36 | 1014.3 |
| 20260506130217 | 12 | 113 | 1.6 | 9.7 | 0.00 | 0.00 | 0.00 | 35 | 1014.3 |
| 20260506125217 | 13 | 90 | 3.2 | 6.4 | 0.00 | 0.00 | 0.00 | 33 | 1014.3 |
| 20260506124217 | 12 | 23 | 6.4 | 11.3 | 0.00 | 0.00 | 0.00 | 39 | 1014.2 |
| 20260506123217 | 11 | 135 | 8.0 | 12.9 | 0.00 | 0.00 | 0.00 | 39 | 1014.2 |
| 20260506122257 | 12 | 90 | 1.6 | 6.4 | 0.00 | 0.00 | 0.00 | 40 | 1014.3 |
| 20260506121217 | 12 | 135 | 4.8 | 8.0 | 0.00 | 0.00 | 0.00 | 37 | 1014.5 |
| 20260506120217 | 12 | 293 | 9.7 | 14.5 | 0.00 | 0.00 | 0.00 | 38 | 1014.5 |
| 20260506115257 | 12 | 113 | 8.0 | 11.3 | 0.00 | 0.00 | 0.00 | 40 | 1014.5 |
| 20260506114217 | 12 | 113 | 4.8 | 8.0 | 0.00 | 0.00 | 0.00 | 38 | 1014.6 |
| 20260506113237 | 12 | 135 | 4.8 | 9.7 | 0.00 | 0.00 | 0.00 | 40 | 1014.7 |
| 20260506112217 | 11 | 315 | 4.8 | 8.0 | 0.00 | 0.00 | 0.00 | 38 | 1014.7 |
| 20260506111216 | 11 | 315 | 17.7 | 20.9 | 0.00 | 0.00 | 0.00 | 40 | 1014.6 |
| 20260506110217 | 11 | 248 | 1.6 | 6.4 | 0.00 | 0.00 | 0.00 | 40 | 1014.9 |
| 20260506105216 | 11 | 203 | 3.2 | 8.0 | 0.00 | 0.00 | 0.00 | 44 | 1014.8 |
| 20260506104217 | 11 | 180 | 1.6 | 4.8 | 0.00 | 0.00 | 0.00 | 39 | 1014.8 |
| 20260506103217 | 11 | 293 | 6.4 | 12.9 | 0.00 | 0.00 | 0.00 | 39 | 1014.9 |
| 20260506102217 | 11 | 293 | 11.3 | 16.1 | 0.00 | 0.00 | 0.00 | 42 | 1015.0 |
| 20260506101216 | 11 | 158 | 1.6 | 3.2 | 0.00 | 0.00 | 0.00 | 42 | 1014.9 |
| 20260506100216 | 11 | 315 | 12.9 | 16.1 | 0.00 | 0.00 | 0.00 | 42 | 1015.0 |
| 20260506095216 | 11 | 338 | 1.6 | 4.8 | 0.00 | 0.00 | 0.00 | 40 | 1015.1 |
| 20260506094217 | 11 | 315 | 3.2 | 6.4 | 0.00 | 0.00 | 0.00 | 42 | 1015.1 |
| 20260506093217 | 10 | 293 | 9.7 | 19.3 | 0.00 | 0.00 | 0.00 | 43 | 1015.0 |
| 20260506092217 | 10 | 315 | 9.7 | 16.1 | 0.00 | 0.00 | 0.00 | 48 | 1015.0 |
| 20260506091217 | 10 | 315 | 4.8 | 6.4 | 0.00 | 0.00 | 0.00 | 45 | 1015.0 |
| 20260506090216 | 10 | 315 | 12.9 | 19.3 | 0.00 | 0.00 | 0.00 | 48 | 1015.0 |
| 20260506085216 | 10 | 293 | 8.0 | 14.5 | 0.00 | 0.00 | 0.00 | 48 | 1015.0 |
| 20260506084217 | 10 | 293 | 4.8 | 9.7 | 0.00 | 0.00 | 0.00 | 49 | 1015.0 |
| 20260506083236 | 10 | 293 | 14.5 | 16.1 | 0.00 | 0.00 | 0.00 | 47 | 1014.9 |
| 20260506082216 | 9 | 338 | 8.0 | 11.3 | 0.00 | 0.00 | 0.00 | 48 | 1015.1 |
| 20260506081237 | 9 | 315 | 8.0 | 17.7 | 0.00 | 0.00 | 0.00 | 50 | 1015.0 |
| 20260506080216 | 9 | 293 | 9.7 | 14.5 | 0.00 | 0.00 | 0.00 | 50 | 1015.0 |
| 20260506073216 | 8 | 293 | 14.5 | 20.9 | 0.00 | 0.00 | 0.00 | 52 | 1014.7 |
| 20260506072216 | 8 | 315 | 9.7 | 12.9 | 0.00 | 0.00 | 0.00 | 52 | 1014.8 |
| 20260506071216 | 8 | 315 | 8.0 | 12.9 | 0.00 | 0.00 | 0.00 | 51 | 1014.5 |
| 20260506070216 | 8 | 293 | 11.3 | 16.1 | 0.00 | 0.00 | 0.00 | 54 | 1014.6 |
| 20260506062216 | 7 | 315 | 4.8 | 6.4 | 0.00 | 0.00 | 0.00 | 58 | 1014.2 |
| 20260506061216 | 7 | 315 | 8.0 | 12.9 | 0.00 | 0.00 | 0.00 | 59 | 1014.3 |
| 20260506060216 | 6 | 293 | 9.7 | 12.9 | 0.00 | 0.00 | 0.00 | 61 | 1014.3 |
| 20260506051216 | 5 | 293 | 4.8 | 6.4 | 0.00 | 0.00 | 0.00 | 71 | 1014.1 |
| 20260506050216 | 5 | 293 | 4.8 | 6.4 | 0.00 | 0.00 | 0.00 | 74 | 1013.9 |
| 20260506044216 | 3 | 315 | 1.6 | 3.2 | 0.00 | 0.00 | 0.00 | 78 | 1013.9 |
| 20260506043236 | 3 | 293 | 3.2 | 3.2 | 0.00 | 0.00 | 0.00 | 79 | 1013.8 |
| 20260506042216 | 3 | 248 | 1.6 | 3.2 | 0.00 | 0.00 | 0.00 | 81 | 1013.7 |
| 20260506041216 | 2 | 0.0 | 0.0 | 0.00 | 0.00 | 0.00 | 81 | 1013.6 | |
| 20260506040216 | 2 | 225 | 3.2 | 3.2 | 0.00 | 0.00 | 0.00 | 82 | 1013.6 |
| 20260506035216 | 1 | 248 | 1.6 | 1.6 | 0.00 | 0.00 | 0.00 | 83 | 1013.4 |
| 20260506034216 | 1 | 0.0 | 0.0 | 0.00 | 0.00 | 0.00 | 83 | 1013.3 | |
| 20260506033216 | 1 | 0.0 | 0.0 | 0.00 | 0.00 | 0.00 | 83 | 1013.2 | |
| 20260506032216 | 1 | 0.0 | 0.0 | 0.00 | 0.00 | 0.00 | 83 | 1013.1 | |
| 20260506031216 | 1 | 0.0 | 0.0 | 0.00 | 0.00 | 0.00 | 82 | 1012.9 | |
| 20260506030216 | 1 | 0.0 | 0.0 | 0.00 | 0.00 | 0.00 | 82 | 1012.7 | |
| 20260506025236 | 0 | 0.0 | 1.6 | 0.00 | 0.00 | 0.00 | 82 | 1012.6 | |
| 20260506024216 | 0 | 0.0 | 0.0 | 0.00 | 0.00 | 0.00 | 82 | 1012.5 | |
| 20260506023216 | 0 | 0.0 | 0.0 | 0.00 | 0.00 | 0.00 | 81 | 1012.5 | |
| 20260506022216 | 0 | 0.0 | 0.0 | 0.00 | 0.00 | 0.00 | 80 | 1012.5 | |
| 20260506021236 | 1 | 0.0 | 0.0 | 0.00 | 0.00 | 0.00 | 79 | 1012.4 | |
| 20260506020235 | 1 | 0.0 | 0.0 | 0.00 | 0.00 | 0.00 | 79 | 1012.4 | |
| 20260506015215 | 1 | 0.0 | 0.0 | 0.00 | 0.00 | 0.00 | 78 | 1012.2 | |
| 20260506014215 | 1 | 0.0 | 0.0 | 0.00 | 0.00 | 0.00 | 77 | 1012.2 | |
| 20260506013216 | 1 | 0.0 | 0.0 | 0.00 | 0.00 | 0.00 | 77 | 1012.1 | |
| 20260506012215 | 1 | 0.0 | 0.0 | 0.00 | 0.00 | 0.00 | 76 | 1012.0 | |
| 20260506011235 | 2 | 0.0 | 1.6 | 0.00 | 0.00 | 0.00 | 75 | 1011.8 | |
| 20260506010216 | 2 | 0.0 | 0.0 | 0.00 | 0.00 | 0.00 | 74 | 1011.8 | |
| 20260506005216 | 2 | 315 | 1.6 | 1.6 | 0.00 | 0.00 | 0.00 | 74 | 1011.7 |
| 20260506004215 | 2 | 0.0 | 1.6 | 0.00 | 0.00 | 0.00 | 74 | 1011.6 | |
| 20260506003217 | 2 | 315 | 1.6 | 4.8 | 0.00 | 0.00 | 0.00 | 73 | 1011.5 |
| 20260506002217 | 2 | 0.0 | 1.6 | 0.00 | 0.00 | 0.00 | 73 | 1011.5 | |
| 20260506001217 | 3 | 315 | 3.2 | 6.4 | 0.00 | 0.00 | 0.00 | 73 | 1011.4 |
| 20260506000258 | 3 | 0.0 | 1.6 | 0.00 | 0.00 | 0.00 | 72 | 1011.3 | |
| 20260505235217 | 3 | 0.0 | 1.6 | 0.00 | 0.00 | 0.00 | 72 | 1011.4 | |
| 20260505234237 | 3 | 315 | 3.2 | 4.8 | 0.00 | 0.00 | 0.00 | 72 | 1011.2 |
| 20260505233217 | 3 | 0.0 | 1.6 | 0.00 | 0.00 | 0.00 | 72 | 1011.2 | |
| 20260505232237 | 3 | 0.0 | 1.6 | 0.00 | 0.00 | 0.00 | 71 | 1011.1 | |
| 20260505231217 | 3 | 0.0 | 0.0 | 0.00 | 0.00 | 0.00 | 71 | 1011.1 | |
| 20260505230217 | 3 | 0.0 | 0.0 | 0.00 | 0.00 | 0.00 | 70 | 1011.1 | |
| 20260505225217 | 4 | 293 | 1.6 | 3.2 | 0.00 | 0.00 | 0.00 | 69 | 1011.0 |
| 20260505224217 | 4 | 315 | 1.6 | 3.2 | 0.00 | 0.00 | 0.00 | 69 | 1011.0 |
| 20260505223217 | 4 | 0.0 | 1.6 | 0.00 | 0.00 | 0.00 | 69 | 1010.9 | |
| 20260505222217 | 5 | 315 | 3.2 | 3.2 | 0.00 | 0.00 | 0.00 | 68 | 1010.8 |
| 20260505221217 | 5 | 315 | 1.6 | 3.2 | 0.00 | 0.00 | 0.00 | 68 | 1010.7 |
| 20260505220217 | 5 | 293 | 1.6 | 3.2 | 0.00 | 0.00 | 0.00 | 68 | 1010.7 |
| 20260505215217 | 5 | 315 | 1.6 | 3.2 | 0.00 | 0.00 | 0.00 | 69 | 1010.5 |
| 20260505214217 | 5 | 293 | 1.6 | 3.2 | 0.00 | 0.00 | 0.00 | 68 | 1010.3 |
| 20260505213217 | 6 | 293 | 1.6 | 3.2 | 0.00 | 0.00 | 0.00 | 67 | 1010.2 |